Regional Weather Roundup
Issued by NWS Raleigh/Durham, NC

Home | Current Version | Previous Version | Text Only | Print | Product List | Glossary On
Versions: 1 2 3 4 5 6 7 8 9 10 11 12 13 14 15 16 17 18 19 20 21 22 23 24 25 26 27 28 29 30 31 32 33 34 35 36 37 38 39 40 41 42 43 44 45 46 47 48 49 50
000
ASUS42 KRAH 181610
RWRRAH
NORTH CAROLINA WEATHER ROUNDUP
NATIONAL WEATHER SERVICE RALEIGH NC
1200 PM EDT THU SEP 18 2014

NOTE: "FAIR" INDICATES FEW OR NO CLOUDS BELOW 12,000 FEET WITH NO
SIGNIFICANT WEATHER AND/OR OBSTRUCTIONS TO VISIBILITY.

NCZ001-053-055-056-065-067-181700-
WESTERN NORTH CAROLINA

CITY           SKY/WX    TMP DP  RH WIND       PRES   REMARKS
ASHEVILLE      CLOUDY    70  56  61 N5        30.07S
JEFFERSON      CLOUDY    65  50  59 CALM      30.09S
HICKORY        PTSUNNY   70  62  76 CALM      30.04S
RUTHERFORDTON  NOT AVBL
MOUNT AIRY     MOSUNNY   71  64  79 CALM      30.06F
$$

NCZ021-022-025-041-071-084-088-181700-
CENTRAL NORTH CAROLINA

CITY           SKY/WX    TMP DP  RH WIND       PRES   REMARKS
CHARLOTTE      PTSUNNY   74  64  71 CALM      30.02F
GREENSBORO     PTSUNNY   72  62  71 CALM      30.02F
WINSTON-SALEM  PTSUNNY   74  61  63 W5        30.04F
RALEIGH-DURHAM MOSUNNY   76  60  57 CALM      30.02F
FAYETTEVILLE   MOSUNNY   78  64  61 E7        30.00S
$$

NCZ011-015-027-028-043-044-047-080-103-181700-
NORTHEASTERN NORTH CAROLINA

CITY           SKY/WX    TMP DP  RH WIND       PRES   REMARKS
ROANOKE RAPIDS FAIR      73  59  60 E5        30.02S
ROCKY MT-WILSO SUNNY     77  59  53 NE5       30.02S
GREENVILLE     SUNNY     77  61  57 E5        30.02F
WASHINGTON     SUNNY     76  59  56 E9        30.01S
ELIZABETH CITY NOT AVBL
MANTEO         SUNNY     74  56  53 NE14      30.01S
CAPE HATTERAS  SUNNY     75  60  59 NE13G21   29.99R
$$

NCZ078-087-090-091-093-098-101-181700-
SOUTHEASTERN NORTH CAROLINA

CITY           SKY/WX    TMP DP  RH WIND       PRES   REMARKS
LUMBERTON      MOSUNNY   78  66  66 NE6       29.99S
KINSTON        SUNNY     77  61  57 E6        30.01S
KENANSVILLE    SUNNY     76  59  54 N5        30.01S
NEW BERN       SUNNY     79  60  52 E9        30.00F
CHERRY POINT   MOSUNNY   78  62  57 NE13G21   30.00R
BEAUFORT       SUNNY     79  65  62 NE12      29.98S
JACKSONVILLE   SUNNY     79  60  52 E9        29.99R
WILMINGTON     SUNNY     77  67  71 NE7       29.98R
$$




USA.gov is the U.S. government's official web portal to all federal, state and local government web resources and services.